This is the latest recevied weather packets stored in our database for station/object SV2RCS-13. If no packets are shown the sender has not sent any weather packets the latest 10 day(s).
| Time | Temp. | Humidity | Pressure | Rain* | Wind** | Luminosity | Snow |
|---|---|---|---|---|---|---|---|
| 1777589218 | 9.44° C | 42% | 1020 hPa | - | - | - | - |
| 1777588617 | 9.44° C | 42% | 1020.2 hPa | - | - | - | - |
| 1777588017 | 9.44° C | 42% | 1020.4 hPa | - | - | - | - |
| 1777587417 | 10° C | 42% | 1020.3 hPa | - | - | - | - |
| 1777586817 | 10° C | 43% | 1020.2 hPa | - | - | - | - |
| 1777586218 | 10° C | 43% | 1020.2 hPa | - | - | - | - |
| 1777585617 | 10° C | 43% | 1020.1 hPa | - | - | - | - |
| 1777585018 | 10° C | 43% | 1020.2 hPa | - | - | - | - |
| 1777584418 | 10° C | 43% | 1020 hPa | - | - | - | - |
| 1777583817 | 10° C | 44% | 1019.9 hPa | - | - | - | - |
| 1777583218 | 10° C | 43% | 1019.8 hPa | - | - | - | - |
| 1777582617 | 10.56° C | 43% | 1019.7 hPa | - | - | - | - |
| 1777582018 | 10° C | 43% | 1019.6 hPa | - | - | - | - |
| 1777581418 | 10° C | 44% | 1019.6 hPa | - | - | - | - |
| 1777580819 | 10° C | 45% | 1019.6 hPa | - | - | - | - |
| 1777580217 | 10° C | 46% | 1019.7 hPa | - | - | - | - |
| 1777579019 | 10° C | 46% | 1019.8 hPa | - | - | - | - |
| 1777578417 | 10° C | 46% | 1019.6 hPa | - | - | - | - |
| 1777577817 | 10° C | 47% | 1019.2 hPa | - | - | - | - |
| 1777577217 | 10° C | 48% | 1019.3 hPa | - | - | - | - |
| 1777576617 | 10.56° C | 47% | 1019.3 hPa | - | - | - | - |
| 1777576018 | 10° C | 47% | 1019.3 hPa | - | - | - | - |
| 1777575417 | 11.11° C | 46% | 1018.9 hPa | - | - | - | - |
| 1777574818 | 10.56° C | 48% | 1018.7 hPa | - | - | - | - |
| 1777574218 | 11.11° C | 48% | 1018.5 hPa | - | - | - | - |
* Rain since midnight (hover to see other rain measurements)
** Current wind speed in m/s (hover to see current wind gust speed)